Regional Weather Roundup
Issued by NWS Bismarck, ND

Home | Current Version | Previous Version | Text Only | Print | Product List | Glossary On
Versions: 1 2 3 4 5 6 7 8 9 10 11 12 13 14 15 16 17 18 19 20 21 22 23 24 25 26 27 28 29 30 31 32 33 34 35 36 37 38 39 40 41 42 43 44 45 46 47 48 49 50
000
ASUS43 KBIS 310920
RWRBIS

NWR BROADCAST TEXT
NATIONAL WEATHER SERVICE BISMARCK ND
400 AM CDT THU JUL 31 2014

NOTE: "FAIR" INDICATES FEW OR NO CLOUDS BELOW 12,000 FEET WITH NO
SIGNIFICANT WEATHER AND/OR OBSTRUCTIONS TO VISIBILITY.


CITY           SKY/WX    TMP DP  RH WIND       PRES   REMARKS
WILLISTON      LGT RAIN  64  59  83 S10       30.08F
MINOT          PTCLDY    57  51  80 CALM      30.10S
MINOT AFB      PTCLDY    55  55  99 W8        30.09F
BISMARCK       PTCLDY    61  57  87 CALM      30.12R
DICKINSON      MOCLDY    56  52  86 CALM      30.15S
GARRISON         N/A     57  55  93 NW6       30.11F
HETTINGER ARPT CLEAR     51  48  89 NW3       30.14S
JAMESTOWN      CLEAR     59  54  83 CALM      30.08S
CROSBY           N/A     61  61 100 SE6       30.09S
HARVEY         FAIR      55  55 100 SW5       30.10S FOG
HAZEN          FAIR      55  55 100 CALM      30.12S
LINTON         FAIR      57  57 100 E5        30.10S
MANDAN         PTSUNNY   59  55  88 NW3       30.13S
RUGBY          FAIR      55  55 100 CALM      30.09S
STANLEY        FAIR      59  59 100 CALM      30.13F
WATFORD CITY   LGT RAIN  61  57  88 CALM      30.09F
$$

CITY           SKY/WX    TMP DP  RH WIND       PRES   REMARKS
GRAND FORKS    PTCLDY    58  56  93 CALM      30.02S
GRAND FORKS AF PTCLDY    59  58  99 SW5       30.04S
DEVILS LAKE    CLEAR     61  55  82 CALM      30.06S
FARGO          CLEAR     57  54  89 CALM      30.04S
CANDO          FAIR      55  54  94 NW3       30.09R
CAVALIER       FAIR      59  57  94 NW6       30.03S
GRAFTON        FAIR      63  59  88 NW7       30.02F
GWINNER        SUNNY     57  57 100 W7        30.08R
LANGDON        FAIR      52  50  93 CALM      30.07S FOG
ROLLA          FAIR      55  55 100 W5        30.10S
$$

CITY           SKY/WX    TMP DP  RH WIND       PRES   REMARKS
ABERDEEN       MOCLDY    60  57  89 NE3       30.08S
MOBRIDGE       PTCLDY    61  54  77 E8        30.07S
BUFFALO          N/A     59  51  75 W5        30.08F
RAPID CITY     CLEAR     60  49  66 NW9       30.16S
GLASGOW        CLEAR     68  50  52 E15G26    30.07R
SIDNEY         MOCLDY    64  52  63 CALM      30.15F
WOLF POINT     MOCLDY    69  50  50 NE10      30.11R
GLENDIVE       PTCLDY    64  48  55 NE18      30.16R
MILES CITY     CLEAR     65  46  50 S8        30.10S
BAKER          CLEAR     56  48  74 S6        30.13F
$$

CITY           SKY/WX    TMP DP  RH WIND       PRES   REMARKS
BILLINGS       PTCLDY    70  37  29 NE3       30.14S
GREAT FALLS    CLEAR     61  44  53 S9        30.12F
REGINA         PTCLDY    63  57  82 E12       30.06F
ESTEVAN        MOCLDY   N/A N/A N/A SE7         N/A  THUNDER
$$



USA.gov is the U.S. government's official web portal to all federal, state and local government web resources and services.